Time,TemperatureF,DewpointF,PressureIn,WindDirection,WindDirectionDegrees,WindSpeedMPH,WindSpeedGustMPH,Humidity,HourlyPrecipIn,Conditions,Clouds,dailyrainin,SoftwareType,DateUTC
2013-02-25 00:00:00,31.5,27.8,30.09,ESE,112,0.0,0.0,86,0.00,,OVC025,0.00,VWS V14.01,2013-02-25 06:00:00,
2013-02-25 00:03:00,31.3,27.6,30.09,ESE,112,0.0,0.0,86,0.00,,CLR,0.00,VWS V14.01,2013-02-25 06:03:00,
2013-02-25 00:05:00,31.3,27.9,30.09,ENE,68,2.1,3.4,87,0.00,,OVC025,0.00,VWS V14.01,2013-02-25 06:05:00,
2013-02-25 00:08:00,31.3,27.6,30.09,East,90,0.0,0.0,86,0.00,,CLR,0.00,VWS V14.01,2013-02-25 06:08:00,
2013-02-25 00:10:00,31.3,27.9,30.09,East,90,0.0,0.0,87,0.00,,OVC025,0.00,VWS V14.01,2013-02-25 06:10:00,
2013-02-25 00:13:00,31.3,28.1,30.12,ESE,112,1.7,1.9,88,0.00,,CLR,0.00,VWS V14.01,2013-02-25 06:13:00,
2013-02-25 00:15:00,31.3,28.1,30.12,ESE,112,0.0,1.9,88,0.00,,OVC025,0.00,VWS V14.01,2013-02-25 06:15:00,
2013-02-25 00:18:00,31.1,28.0,30.12,SE,135,0.0,0.0,88,0.00,,CLR,0.00,VWS V14.01,2013-02-25 06:18:00,
2013-02-25 00:20:00,31.1,28.0,30.12,SE,135,0.0,0.0,88,0.00,,OVC025,0.00,VWS V14.01,2013-02-25 06:20:00,
2013-02-25 00:23:00,31.1,28.0,30.12,SE,135,0.0,0.0,88,0.00,,CLR,0.00,VWS V14.01,2013-02-25 06:23:00,
2013-02-25 00:25:00,31.1,28.0,30.12,ENE,68,0.0,0.0,88,0.00,,OVC025,0.00,VWS V14.01,2013-02-25 06:25:00,
2013-02-25 00:28:00,30.9,27.8,30.09,East,90,0.0,0.0,88,0.00,,CLR,0.00,VWS V14.01,2013-02-25 06:28:00,
2013-02-25 00:30:00,30.9,27.8,30.09,East,90,0.0,0.0,88,0.00,,OVC025,0.00,VWS V14.01,2013-02-25 06:30:00,
2013-02-25 00:33:00,30.7,27.6,30.09,East,90,0.0,2.9,88,0.00,,CLR,0.00,VWS V14.01,2013-02-25 06:33:00,
2013-02-25 00:35:00,30.7,27.6,30.09,East,90,0.0,0.0,88,0.00,,OVC025,0.00,VWS V14.01,2013-02-25 06:35:00,
2013-02-25 00:38:00,30.7,27.6,30.09,East,90,0.0,0.0,88,0.00,,CLR,0.00,VWS V14.01,2013-02-25 06:38:00,
2013-02-25 00:40:00,30.7,27.6,30.09,East,90,0.0,0.0,88,0.00,,OVC025,0.00,VWS V14.01,2013-02-25 06:40:00,
2013-02-25 00:43:00,30.7,27.6,30.09,East,90,0.0,0.0,88,0.00,,CLR,0.00,VWS V14.01,2013-02-25 06:43:00,
2013-02-25 00:45:00,30.7,27.6,30.09,East,90,0.0,0.0,88,0.00,,OVC025,0.00,VWS V14.01,2013-02-25 06:45:00,
2013-02-25 00:49:00,30.7,27.6,30.09,East,90,0.0,0.0,88,0.00,,CLR,0.00,VWS V14.01,2013-02-25 06:49:00,
2013-02-25 00:50:00,30.7,27.6,30.09,East,90,0.0,0.0,88,0.00,,OVC025,0.00,VWS V14.01,2013-02-25 06:50:00,
2013-02-25 00:54:00,30.7,27.6,30.09,East,90,0.0,0.0,88,0.00,,CLR,0.00,VWS V14.01,2013-02-25 06:54:00,
2013-02-25 00:59:00,30.5,27.4,30.12,ENE,68,2.6,2.9,88,0.00,,CLR,0.00,VWS V14.01,2013-02-25 06:59:00,
2013-02-25 01:00:00,30.5,27.4,30.12,ENE,68,2.6,2.9,88,0.00,,OVC025,0.00,VWS V14.01,2013-02-25 07:00:00,
2013-02-25 01:04:00,30.5,27.7,30.12,SE,135,0.0,0.0,89,0.00,,CLR,0.00,VWS V14.01,2013-02-25 07:04:00,
2013-02-25 01:05:00,30.5,27.7,30.12,SE,135,0.0,0.0,89,0.00,,OVC025,0.00,VWS V14.01,2013-02-25 07:05:00,
2013-02-25 01:09:00,30.5,27.4,30.12,SE,135,0.0,0.0,88,0.00,,CLR,0.00,VWS V14.01,2013-02-25 07:09:00,
2013-02-25 01:14:00,30.5,27.7,30.12,SE,135,0.0,0.0,89,0.00,,CLR,0.00,VWS V14.01,2013-02-25 07:14:00,
2013-02-25 01:15:00,30.5,27.7,30.12,SE,135,0.0,0.0,89,0.00,,OVC025,0.00,VWS V14.01,2013-02-25 07:15:00,
2013-02-25 01:19:00,30.5,27.7,30.12,East,90,0.0,0.0,89,0.00,,CLR,0.00,VWS V14.01,2013-02-25 07:19:00,
2013-02-25 01:20:00,30.5,27.7,30.12,East,90,0.0,0.0,89,0.00,,OVC025,0.00,VWS V14.01,2013-02-25 07:20:00,
2013-02-25 01:24:00,30.4,27.5,30.12,East,90,0.0,0.0,89,0.00,,CLR,0.00,VWS V14.01,2013-02-25 07:24:00,
2013-02-25 01:29:00,30.4,27.5,30.12,East,90,0.0,0.0,89,0.00,,CLR,0.00,VWS V14.01,2013-02-25 07:29:00,
2013-02-25 01:30:00,30.4,27.5,30.12,East,90,0.0,0.0,89,0.00,,OVC025,0.00,VWS V14.01,2013-02-25 07:30:00,
2013-02-25 01:34:00,30.4,27.5,30.12,East,90,0.0,0.0,89,0.00,,CLR,0.00,VWS V14.01,2013-02-25 07:34:00,
2013-02-25 01:35:00,30.4,27.5,30.12,East,90,0.0,0.0,89,0.00,,OVC025,0.00,VWS V14.01,2013-02-25 07:35:00,
2013-02-25 01:39:00,30.4,27.8,30.12,SE,135,0.0,0.0,90,0.00,,CLR,0.00,VWS V14.01,2013-02-25 07:39:00,
2013-02-25 01:40:00,30.4,27.8,30.12,SE,135,0.0,0.0,90,0.00,,OVC025,0.00,VWS V14.01,2013-02-25 07:40:00,
2013-02-25 01:44:00,30.4,27.8,30.12,East,90,0.0,0.0,90,0.00,,CLR,0.00,VWS V14.01,2013-02-25 07:44:00,
2013-02-25 01:45:00,30.4,27.8,30.12,East,90,0.0,0.0,90,0.00,,OVC025,0.00,VWS V14.01,2013-02-25 07:45:00,
2013-02-25 01:49:00,30.5,28.0,30.12,East,90,0.0,0.0,90,0.00,,CLR,0.00,VWS V14.01,2013-02-25 07:49:00,
2013-02-25 01:50:00,30.5,28.0,30.12,East,90,0.0,0.0,90,0.00,,OVC025,0.00,VWS V14.01,2013-02-25 07:50:00,
2013-02-25 01:54:00,30.5,28.0,30.12,East,90,0.0,0.0,90,0.00,,CLR,0.00,VWS V14.01,2013-02-25 07:54:00,
2013-02-25 01:55:00,30.5,28.0,30.12,East,90,0.0,0.0,90,0.00,,OVC025,0.00,VWS V14.01,2013-02-25 07:55:00,
2013-02-25 02:00:00,30.4,27.8,30.12,East,90,0.0,0.0,90,0.00,,CLR,0.00,VWS V14.01,2013-02-25 08:00:00,
2013-02-25 02:05:00,30.4,27.8,30.12,East,90,0.0,0.0,90,0.00,,CLR,0.00,VWS V14.01,2013-02-25 08:05:00,
2013-02-25 02:10:00,30.2,27.9,30.12,East,90,0.0,0.0,91,0.00,,CLR,0.00,VWS V14.01,2013-02-25 08:10:00,
2013-02-25 02:15:00,30.2,27.9,30.12,East,90,0.0,0.0,91,0.00,,CLR,0.00,VWS V14.01,2013-02-25 08:15:00,
2013-02-25 02:20:00,30.0,28.0,30.12,ESE,112,3.8,4.3,92,0.00,,CLR,0.00,VWS V14.01,2013-02-25 08:20:00,
2013-02-25 02:25:00,30.0,27.7,30.12,ESE,112,0.0,4.3,91,0.00,,CLR,0.00,VWS V14.01,2013-02-25 08:25:00,
2013-02-25 02:30:00,29.8,27.8,30.12,ESE,112,0.0,0.0,92,0.00,,CLR,0.00,VWS V14.01,2013-02-25 08:30:00,
2013-02-25 02:35:00,29.8,27.5,30.12,ESE,112,0.0,0.0,91,0.00,,CLR,0.00,VWS V14.01,2013-02-25 08:35:00,
2013-02-25 02:40:00,29.6,27.4,30.15,East,90,2.6,2.9,91,0.00,,CLR,0.00,VWS V14.01,2013-02-25 08:40:00,
2013-02-25 02:45:00,29.8,27.8,30.15,East,90,2.6,2.9,92,0.00,,CLR,0.00,VWS V14.01,2013-02-25 08:45:00,
2013-02-25 02:50:00,29.5,27.7,30.15,ESE,112,0.0,1.9,93,0.00,,CLR,0.00,VWS V14.01,2013-02-25 08:50:00,
2013-02-25 02:55:00,29.5,27.7,30.15,ESE,112,0.0,0.0,93,0.00,,CLR,0.00,VWS V14.01,2013-02-25 08:55:00,
2013-02-25 03:00:00,29.6,28.1,30.12,ESE,112,0.0,0.0,94,0.00,,CLR,0.00,VWS V14.01,2013-02-25 09:00:00,
2013-02-25 03:05:00,29.8,28.3,30.12,SE,135,2.6,2.9,94,0.00,,CLR,0.00,VWS V14.01,2013-02-25 09:05:00,
2013-02-25 03:10:00,29.8,28.6,30.12,ENE,68,4.7,5.8,95,0.00,,CLR,0.00,VWS V14.01,2013-02-25 09:10:00,
2013-02-25 03:15:00,29.8,28.8,30.12,ENE,68,4.7,5.3,96,0.00,,CLR,0.00,VWS V14.01,2013-02-25 09:15:00,
2013-02-25 03:20:00,29.8,28.6,30.12,ENE,68,4.7,5.3,95,0.00,,OVC025,0.00,VWS V14.01,2013-02-25 09:20:00,
2013-02-25 03:21:00,29.8,28.3,30.12,East,90,2.6,2.9,94,0.00,,CLR,0.00,VWS V14.01,2013-02-25 09:21:00,
2013-02-25 03:25:00,29.6,27.9,30.12,East,90,0.0,0.0,93,0.00,,OVC025,0.00,VWS V14.01,2013-02-25 09:25:00,
2013-02-25 03:26:00,29.5,28.0,30.12,East,90,4.3,4.8,94,0.00,,CLR,0.00,VWS V14.01,2013-02-25 09:26:00,
2013-02-25 03:30:00,29.6,28.1,30.12,SE,135,3.8,4.3,94,0.00,,OVC025,0.00,VWS V14.01,2013-02-25 09:30:00,
2013-02-25 03:31:00,29.6,28.1,30.12,SE,135,3.8,4.3,94,0.00,,CLR,0.00,VWS V14.01,2013-02-25 09:31:00,
2013-02-25 03:35:00,29.6,28.4,30.12,SE,135,3.8,4.3,95,0.00,,OVC025,0.00,VWS V14.01,2013-02-25 09:35:00,
2013-02-25 03:36:00,29.8,28.3,30.12,SE,135,3.8,4.3,94,0.00,,CLR,0.00,VWS V14.01,2013-02-25 09:36:00,
2013-02-25 03:40:00,29.8,28.6,30.12,SE,135,3.8,4.3,95,0.00,,OVC025,0.00,VWS V14.01,2013-02-25 09:40:00,
2013-02-25 03:41:00,29.6,28.4,30.12,SE,135,3.8,4.3,95,0.00,,CLR,0.00,VWS V14.01,2013-02-25 09:41:00,
2013-02-25 03:45:00,29.6,28.4,30.12,SE,135,3.8,4.3,95,0.00,,OVC025,0.00,VWS V14.01,2013-02-25 09:45:00,
2013-02-25 03:46:00,29.6,28.4,30.12,SE,135,3.8,4.3,95,0.00,,CLR,0.00,VWS V14.01,2013-02-25 09:46:00,
2013-02-25 03:50:00,29.6,28.4,30.12,ESE,112,2.1,2.4,95,0.00,,OVC025,0.00,VWS V14.01,2013-02-25 09:50:00,
2013-02-25 03:51:00,29.6,28.4,30.12,ESE,112,2.1,2.4,95,0.00,,CLR,0.00,VWS V14.01,2013-02-25 09:51:00,
2013-02-25 03:55:00,29.8,28.3,30.12,ESE,112,2.6,2.9,94,0.00,,OVC025,0.00,VWS V14.01,2013-02-25 09:55:00,
2013-02-25 03:56:00,29.6,28.1,30.12,ESE,112,2.6,2.9,94,0.00,,CLR,0.00,VWS V14.01,2013-02-25 09:56:00,
2013-02-25 04:00:00,29.8,28.3,30.12,East,90,2.6,2.9,94,0.00,,OVC025,0.00,VWS V14.01,2013-02-25 10:00:00,
2013-02-25 04:01:00,29.8,28.3,30.12,ESE,112,3.0,3.4,94,0.00,,,0.00,VWS V14.01,2013-02-25 10:01:00,
2013-02-25 04:05:00,29.8,28.3,30.12,East,90,1.7,1.9,94,0.00,,OVC025,0.00,VWS V14.01,2013-02-25 10:05:00,
2013-02-25 04:06:00,29.8,28.3,30.12,East,90,1.7,1.9,94,0.00,,,0.00,VWS V14.01,2013-02-25 10:06:00,
2013-02-25 04:10:00,29.8,28.6,30.12,ENE,68,5.5,6.3,95,0.00,,OVC025,0.00,VWS V14.01,2013-02-25 10:10:00,
2013-02-25 04:11:00,29.8,28.6,30.12,East,90,0.0,2.4,95,0.00,,,0.00,VWS V14.01,2013-02-25 10:11:00,
2013-02-25 04:15:00,29.8,28.6,30.12,East,90,0.0,0.0,95,0.00,,OVC025,0.00,VWS V14.01,2013-02-25 10:15:00,
2013-02-25 04:16:00,29.8,28.6,30.12,ENE,68,2.6,3.4,95,0.00,,,0.00,VWS V14.01,2013-02-25 10:16:00,
2013-02-25 04:20:00,29.8,28.6,30.12,SE,135,5.5,6.3,95,0.00,,OVC025,0.00,VWS V14.01,2013-02-25 10:20:00,
2013-02-25 04:21:00,29.8,28.6,30.12,ENE,68,4.7,6.7,95,0.00,,,0.00,VWS V14.01,2013-02-25 10:21:00,
2013-02-25 04:25:00,30.0,28.8,30.12,East,90,4.7,5.3,95,0.00,,OVC025,0.00,VWS V14.01,2013-02-25 10:25:00,
2013-02-25 04:26:00,30.0,28.8,30.12,East,90,2.1,2.4,95,0.00,,,0.00,VWS V14.01,2013-02-25 10:26:00,
2013-02-25 04:31:00,30.0,28.5,30.12,East,90,2.1,2.4,94,0.00,,,0.00,VWS V14.01,2013-02-25 10:31:00,
2013-02-25 04:35:00,30.0,28.5,30.12,East,90,2.1,2.4,94,0.00,,OVC025,0.00,VWS V14.01,2013-02-25 10:35:00,
2013-02-25 04:36:00,30.0,28.5,30.12,East,90,2.1,2.4,94,0.00,,,0.00,VWS V14.01,2013-02-25 10:36:00,
2013-02-25 04:40:00,30.0,28.2,30.12,East,90,0.0,2.4,93,0.00,,OVC025,0.00,VWS V14.01,2013-02-25 10:40:00,
2013-02-25 04:42:00,30.0,28.2,30.15,East,90,0.0,0.0,93,0.00,,,0.00,VWS V14.01,2013-02-25 10:42:00,
2013-02-25 04:47:00,30.0,28.2,30.15,SE,135,0.0,0.0,93,0.00,,,0.00,VWS V14.01,2013-02-25 10:47:00,
2013-02-25 04:50:00,30.0,28.0,30.15,East,90,3.8,4.3,92,0.00,,OVC025,0.00,VWS V14.01,2013-02-25 10:50:00,
2013-02-25 04:52:00,29.8,27.8,30.15,East,90,2.1,2.4,92,0.00,,,0.00,VWS V14.01,2013-02-25 10:52:00,
2013-02-25 04:55:00,29.8,27.8,30.15,ESE,112,2.6,2.9,92,0.00,,OVC025,0.00,VWS V14.01,2013-02-25 10:55:00,
2013-02-25 04:57:00,29.8,27.5,30.15,ESE,112,2.6,2.9,91,0.00,,,0.00,VWS V14.01,2013-02-25 10:57:00,
2013-02-25 05:00:00,29.6,27.6,30.15,ESE,112,2.6,2.9,92,0.00,,OVC025,0.00,VWS V14.01,2013-02-25 11:00:00,
2013-02-25 05:02:00,29.6,27.6,30.15,ESE,112,2.6,2.9,92,0.00,,CLR,0.00,VWS V14.01,2013-02-25 11:02:00,
2013-02-25 05:05:00,29.6,27.6,30.15,ESE,112,2.6,2.9,92,0.00,,OVC025,0.00,VWS V14.01,2013-02-25 11:05:00,
2013-02-25 05:07:00,29.6,27.6,30.15,East,90,3.8,4.3,92,0.00,,CLR,0.00,VWS V14.01,2013-02-25 11:07:00,
2013-02-25 05:10:00,29.5,27.4,30.15,ENE,68,0.0,4.3,92,0.00,,OVC025,0.00,VWS V14.01,2013-02-25 11:10:00,
2013-02-25 05:12:00,29.5,27.7,30.12,East,90,2.1,2.4,93,0.00,,CLR,0.00,VWS V14.01,2013-02-25 11:12:00,
2013-02-25 05:15:00,29.6,27.9,30.12,East,90,2.1,2.4,93,0.00,,OVC025,0.00,VWS V14.01,2013-02-25 11:15:00,
2013-02-25 05:17:00,29.6,27.9,30.12,East,90,2.1,2.4,93,0.00,,CLR,0.00,VWS V14.01,2013-02-25 11:17:00,
2013-02-25 05:20:00,29.5,27.7,30.12,East,90,2.1,2.4,93,0.00,,OVC025,0.00,VWS V14.01,2013-02-25 11:20:00,
2013-02-25 05:22:00,29.6,27.9,30.12,SE,135,0.0,0.0,93,0.00,,CLR,0.00,VWS V14.01,2013-02-25 11:22:00,
2013-02-25 05:25:00,29.6,27.6,30.12,East,90,0.0,2.9,92,0.00,,OVC025,0.00,VWS V14.01,2013-02-25 11:25:00,
2013-02-25 05:27:00,29.5,27.4,30.12,East,90,0.0,0.0,92,0.00,,CLR,0.00,VWS V14.01,2013-02-25 11:27:00,
2013-02-25 05:30:00,29.3,27.3,30.12,East,90,0.0,0.0,92,0.00,,OVC025,0.00,VWS V14.01,2013-02-25 11:30:00,
2013-02-25 05:32:00,29.1,26.8,30.12,ENE,68,2.1,2.9,91,0.00,,CLR,0.00,VWS V14.01,2013-02-25 11:32:00,
2013-02-25 05:35:00,29.1,26.8,30.12,East,90,1.7,2.9,91,0.00,,OVC025,0.00,VWS V14.01,2013-02-25 11:35:00,
2013-02-25 05:37:00,28.9,26.6,30.12,East,90,3.0,4.3,91,0.00,,CLR,0.00,VWS V14.01,2013-02-25 11:37:00,
2013-02-25 05:40:00,29.1,26.8,30.12,ESE,112,1.7,3.4,91,0.00,,OVC025,0.00,VWS V14.01,2013-02-25 11:40:00,
2013-02-25 05:43:00,28.9,26.9,30.15,ENE,68,2.1,3.4,92,0.00,,CLR,0.00,VWS V14.01,2013-02-25 11:43:00,
2013-02-25 05:48:00,28.8,26.7,30.15,ENE,68,4.7,5.3,92,0.00,,CLR,0.00,VWS V14.01,2013-02-25 11:48:00,
2013-02-25 05:50:00,28.9,26.9,30.15,ESE,112,0.0,5.3,92,0.00,,OVC025,0.00,VWS V14.01,2013-02-25 11:50:00,
2013-02-25 05:53:00,28.8,26.7,30.15,ENE,68,3.0,3.4,92,0.00,,CLR,0.00,VWS V14.01,2013-02-25 11:53:00,
2013-02-25 05:55:00,28.8,27.2,30.15,East,90,3.0,4.8,94,0.00,,OVC025,0.00,VWS V14.01,2013-02-25 11:55:00,
2013-02-25 05:58:00,28.8,27.2,30.12,East,90,0.0,0.0,94,0.00,,CLR,0.00,VWS V14.01,2013-02-25 11:58:00,
2013-02-25 06:00:00,28.8,27.2,30.12,ENE,68,3.0,3.4,94,0.00,,OVC025,0.00,VWS V14.01,2013-02-25 12:00:00,
2013-02-25 06:03:00,28.8,27.5,30.12,ENE,68,3.8,4.3,95,0.00,,CLR,0.00,VWS V14.01,2013-02-25 12:03:00,
2013-02-25 06:05:00,28.8,27.5,30.12,ENE,68,3.8,4.3,95,0.00,,OVC025,0.00,VWS V14.01,2013-02-25 12:05:00,
2013-02-25 06:08:00,28.6,27.3,30.12,NE,45,4.7,5.3,95,0.00,,CLR,0.00,VWS V14.01,2013-02-25 12:08:00,
2013-02-25 06:10:00,28.8,27.5,30.12,East,90,3.0,5.3,95,0.00,,OVC025,0.00,VWS V14.01,2013-02-25 12:10:00,
2013-02-25 06:13:00,28.8,27.5,30.12,East,90,3.8,4.3,95,0.00,,CLR,0.00,VWS V14.01,2013-02-25 12:13:00,
2013-02-25 06:15:00,28.6,27.3,30.12,ENE,68,5.5,6.3,95,0.00,,OVC025,0.00,VWS V14.01,2013-02-25 12:15:00,
2013-02-25 06:18:00,28.8,27.8,30.12,ENE,68,5.5,6.3,96,0.00,,CLR,0.00,VWS V14.01,2013-02-25 12:18:00,
2013-02-25 06:20:00,28.9,27.9,30.12,ENE,68,5.1,6.3,96,0.00,,OVC025,0.00,VWS V14.01,2013-02-25 12:20:00,
2013-02-25 06:23:00,29.1,28.4,30.12,East,90,2.6,5.8,97,0.00,,CLR,0.00,VWS V14.01,2013-02-25 12:23:00,
2013-02-25 06:25:00,29.1,28.4,30.12,SE,135,3.8,4.3,97,0.00,,OVC025,0.00,VWS V14.01,2013-02-25 12:25:00,
2013-02-25 06:28:00,29.1,28.4,30.12,ENE,68,3.8,4.3,97,0.00,,CLR,0.00,VWS V14.01,2013-02-25 12:28:00,
2013-02-25 06:30:00,29.1,28.4,30.12,ENE,68,3.8,4.3,97,0.00,,OVC025,0.00,VWS V14.01,2013-02-25 12:30:00,
2013-02-25 06:33:00,29.1,28.4,30.12,ENE,68,3.0,4.3,97,0.00,,CLR,0.00,VWS V14.01,2013-02-25 12:33:00,
2013-02-25 06:35:00,29.1,28.4,30.12,ENE,68,3.0,4.3,97,0.00,,OVC025,0.00,VWS V14.01,2013-02-25 12:35:00,
2013-02-25 06:39:00,29.3,28.5,30.12,ENE,68,5.5,7.2,97,0.00,,CLR,0.00,VWS V14.01,2013-02-25 12:39:00,
2013-02-25 06:40:00,29.3,28.5,30.12,ENE,68,5.5,7.2,97,0.00,,OVC025,0.00,VWS V14.01,2013-02-25 12:40:00,
2013-02-25 06:44:00,29.5,28.5,30.09,ENE,68,5.5,6.3,96,0.00,,CLR,0.00,VWS V14.01,2013-02-25 12:44:00,
2013-02-25 06:45:00,29.5,28.5,30.09,ENE,68,5.5,6.3,96,0.00,,OVC025,0.00,VWS V14.01,2013-02-25 12:45:00,
2013-02-25 06:49:00,29.5,28.5,30.09,ESE,112,3.8,4.3,96,0.00,,CLR,0.00,VWS V14.01,2013-02-25 12:49:00,
2013-02-25 06:50:00,29.5,28.5,30.09,ESE,112,3.8,4.3,96,0.00,,OVC025,0.00,VWS V14.01,2013-02-25 12:50:00,
2013-02-25 06:54:00,29.6,28.6,30.09,ENE,68,4.7,5.3,96,0.00,,CLR,0.00,VWS V14.01,2013-02-25 12:54:00,
2013-02-25 06:59:00,29.8,28.6,30.09,East,90,4.7,5.3,95,0.00,,CLR,0.00,VWS V14.01,2013-02-25 12:59:00,
2013-02-25 07:00:00,29.8,28.6,30.09,ESE,112,4.7,5.3,95,0.00,,OVC025,0.00,VWS V14.01,2013-02-25 13:00:00,
2013-02-25 07:04:00,29.8,28.3,30.09,ESE,112,4.7,5.3,94,0.00,,,0.00,VWS V14.01,2013-02-25 13:04:00,
2013-02-25 07:05:00,29.8,28.3,30.09,ESE,112,4.7,5.3,94,0.00,,OVC025,0.00,VWS V14.01,2013-02-25 13:05:00,
2013-02-25 07:09:00,29.8,28.3,30.09,ENE,68,1.7,1.9,94,0.00,,,0.00,VWS V14.01,2013-02-25 13:09:00,
2013-02-25 07:10:00,29.8,28.3,30.09,ENE,68,1.7,1.9,94,0.00,,OVC025,0.00,VWS V14.01,2013-02-25 13:10:00,
2013-02-25 07:14:00,30.0,28.5,30.09,ENE,68,3.0,3.4,94,0.00,,,0.00,VWS V14.01,2013-02-25 13:14:00,
2013-02-25 07:15:00,30.0,28.5,30.09,ENE,68,3.0,3.4,94,0.00,,OVC025,0.00,VWS V14.01,2013-02-25 13:15:00,
2013-02-25 07:19:00,30.2,28.7,30.09,East,90,0.0,0.0,94,0.00,,,0.00,VWS V14.01,2013-02-25 13:19:00,
2013-02-25 07:20:00,30.2,28.7,30.09,East,90,0.0,0.0,94,0.00,,OVC025,0.00,VWS V14.01,2013-02-25 13:20:00,
2013-02-25 07:24:00,30.5,28.8,30.09,ENE,68,3.0,3.4,93,0.00,,,0.00,VWS V14.01,2013-02-25 13:24:00,
2013-02-25 07:25:00,30.5,28.8,30.09,ENE,68,3.0,3.4,93,0.00,,OVC025,0.00,VWS V14.01,2013-02-25 13:25:00,
2013-02-25 07:29:00,30.7,29.2,30.06,East,90,3.0,3.4,94,0.00,,,0.00,VWS V14.01,2013-02-25 13:29:00,
2013-02-25 07:30:00,30.7,29.2,30.06,East,90,3.0,3.4,94,0.00,,OVC025,0.00,VWS V14.01,2013-02-25 13:30:00,
2013-02-25 07:34:00,30.7,29.0,30.06,East,90,4.3,4.8,93,0.00,,,0.00,VWS V14.01,2013-02-25 13:34:00,
2013-02-25 07:35:00,30.7,29.0,30.06,East,90,4.3,4.8,93,0.00,,OVC025,0.00,VWS V14.01,2013-02-25 13:35:00,
2013-02-25 07:39:00,31.1,29.3,30.06,ENE,68,3.0,3.4,93,0.00,,,0.00,VWS V14.01,2013-02-25 13:39:00,
2013-02-25 07:40:00,31.1,29.3,30.06,ENE,68,3.0,3.4,93,0.00,,OVC025,0.00,VWS V14.01,2013-02-25 13:40:00,
2013-02-25 07:44:00,31.3,29.2,30.06,NE,45,3.0,3.4,92,0.00,,,0.00,VWS V14.01,2013-02-25 13:44:00,
2013-02-25 07:45:00,31.3,29.2,30.06,NE,45,3.0,3.4,92,0.00,,OVC025,0.00,VWS V14.01,2013-02-25 13:45:00,
2013-02-25 07:49:00,31.5,29.4,30.06,ENE,68,5.5,6.3,92,0.00,,,0.00,VWS V14.01,2013-02-25 13:49:00,
2013-02-25 07:50:00,31.5,29.4,30.06,ENE,68,5.5,6.3,92,0.00,,OVC025,0.00,VWS V14.01,2013-02-25 13:50:00,
2013-02-25 07:54:00,31.8,29.5,30.06,ENE,68,3.0,3.4,91,0.00,,,0.00,VWS V14.01,2013-02-25 13:54:00,
2013-02-25 07:55:00,31.6,29.3,30.06,ENE,68,3.0,3.4,91,0.00,,OVC025,0.00,VWS V14.01,2013-02-25 13:55:00,
2013-02-25 07:59:00,32.2,29.8,30.03,East,90,4.3,5.8,91,0.00,,,0.00,VWS V14.01,2013-02-25 13:59:00,
2013-02-25 08:00:00,32.2,29.8,30.03,East,90,4.3,5.8,91,0.00,,OVC025,0.00,VWS V14.01,2013-02-25 14:00:00,
2013-02-25 08:04:00,32.3,30.0,30.03,East,90,4.7,5.3,91,0.00,,,0.00,VWS V14.01,2013-02-25 14:04:00,
2013-02-25 08:05:00,32.3,30.0,30.03,East,90,4.7,5.3,91,0.00,,OVC025,0.00,VWS V14.01,2013-02-25 14:05:00,
2013-02-25 08:09:00,32.9,30.3,30.03,ENE,68,2.6,2.9,90,0.00,,,0.00,VWS V14.01,2013-02-25 14:09:00,
2013-02-25 08:14:00,33.2,30.4,30.03,SE,135,3.8,6.3,89,0.00,,,0.00,VWS V14.01,2013-02-25 14:14:00,
2013-02-25 08:15:00,33.2,30.4,30.03,East,90,3.8,6.3,89,0.00,,OVC025,0.00,VWS V14.01,2013-02-25 14:15:00,
2013-02-25 08:20:00,33.4,30.3,30.03,East,90,3.8,6.7,88,0.00,,,0.00,VWS V14.01,2013-02-25 14:20:00,
2013-02-25 08:25:00,33.6,30.2,30.03,NE,45,7.2,9.1,87,0.00,,,0.00,VWS V14.01,2013-02-25 14:25:00,
2013-02-25 08:30:00,33.8,30.3,30.03,ENE,68,4.7,5.3,87,0.00,,,0.00,VWS V14.01,2013-02-25 14:30:00,
2013-02-25 08:35:00,34.0,30.5,30.03,ENE,68,3.0,3.4,87,0.00,,,0.00,VWS V14.01,2013-02-25 14:35:00,
2013-02-25 08:40:00,34.2,30.4,30.03,ENE,68,3.8,6.3,86,0.00,,,0.00,VWS V14.01,2013-02-25 14:40:00,
2013-02-25 08:45:00,34.7,30.9,30.00,ENE,68,6.4,7.2,86,0.00,,,0.00,VWS V14.01,2013-02-25 14:45:00,
2013-02-25 08:50:00,35.0,31.3,30.00,ENE,68,3.8,5.3,86,0.00,,,0.00,VWS V14.01,2013-02-25 14:50:00,
2013-02-25 08:55:00,35.2,31.5,30.00,ENE,68,5.1,6.7,86,0.00,,,0.00,VWS V14.01,2013-02-25 14:55:00,
2013-02-25 09:00:00,35.6,31.5,30.03,East,90,6.4,7.2,85,0.00,,,0.00,VWS V14.01,2013-02-25 15:00:00,
2013-02-25 09:05:00,35.8,31.4,30.03,ENE,68,3.8,4.3,84,0.00,,,0.00,VWS V14.01,2013-02-25 15:05:00,
2013-02-25 09:10:00,36.1,31.5,30.03,ENE,68,6.0,7.7,83,0.00,,,0.00,VWS V14.01,2013-02-25 15:10:00,
2013-02-25 09:15:00,36.7,31.4,30.03,SE,135,6.4,7.2,81,0.00,,,0.00,VWS V14.01,2013-02-25 15:15:00,
2013-02-25 09:20:00,36.8,31.6,30.03,SE,135,6.4,7.2,81,0.00,,,0.00,VWS V14.01,2013-02-25 15:20:00,
2013-02-25 09:25:00,37.4,30.9,30.00,East,90,3.8,4.3,77,0.00,,,0.00,VWS V14.01,2013-02-25 15:25:00,
2013-02-25 09:30:00,37.6,31.7,30.00,East,90,3.8,4.3,79,0.00,,,0.00,VWS V14.01,2013-02-25 15:30:00,
2013-02-25 09:35:00,37.9,30.7,30.00,ENE,68,5.5,9.1,75,0.00,,,0.00,VWS V14.01,2013-02-25 15:35:00,
2013-02-25 09:40:00,38.3,30.4,30.00,SE,135,5.5,6.3,73,0.00,,,0.00,VWS V14.01,2013-02-25 15:40:00,
2013-02-25 09:45:00,38.7,30.8,30.00,ENE,68,8.1,9.1,73,0.00,,,0.00,VWS V14.01,2013-02-25 15:45:00,
2013-02-25 09:50:00,38.8,30.9,30.00,ENE,68,3.8,6.7,73,0.00,,,0.00,VWS V14.01,2013-02-25 15:50:00,
2013-02-25 09:55:00,39.2,30.6,30.03,NE,45,2.6,8.2,71,0.00,,,0.00,VWS V14.01,2013-02-25 15:55:00,
2013-02-25 10:00:00,39.2,30.6,30.03,SE,135,5.1,7.7,71,0.00,,OVC025,0.00,VWS V14.01,2013-02-25 16:00:00,
2013-02-25 10:01:00,39.4,31.1,30.03,SE,135,5.1,5.8,72,0.00,,CLR,0.00,VWS V14.01,2013-02-25 16:01:00,
2013-02-25 10:05:00,39.4,30.4,30.03,NE,45,4.3,4.8,70,0.00,,OVC025,0.00,VWS V14.01,2013-02-25 16:05:00,
2013-02-25 10:06:00,39.5,30.6,30.03,ENE,68,5.1,5.8,70,0.00,,CLR,0.00,VWS V14.01,2013-02-25 16:06:00,
2013-02-25 10:10:00,39.7,31.1,30.03,SW,225,4.3,9.1,71,0.00,,OVC025,0.00,VWS V14.01,2013-02-25 16:10:00,
2013-02-25 10:11:00,39.7,31.1,30.03,ENE,68,4.7,5.3,71,0.00,,CLR,0.00,VWS V14.01,2013-02-25 16:11:00,
2013-02-25 10:15:00,40.1,31.1,30.03,East,90,6.4,7.2,70,0.00,,OVC025,0.00,VWS V14.01,2013-02-25 16:15:00,
2013-02-25 10:16:00,40.1,31.1,30.03,East,90,10.6,12.0,70,0.00,,CLR,0.00,VWS V14.01,2013-02-25 16:16:00,
2013-02-25 10:20:00,40.3,30.9,30.03,ESE,112,4.7,5.3,69,0.00,,OVC025,0.00,VWS V14.01,2013-02-25 16:20:00,
2013-02-25 10:21:00,40.3,31.6,30.03,ENE,68,2.1,4.3,71,0.00,,CLR,0.00,VWS V14.01,2013-02-25 16:21:00,
2013-02-25 10:25:00,40.5,31.5,30.03,ENE,68,6.0,8.2,70,0.00,,OVC025,0.00,VWS V14.01,2013-02-25 16:25:00,
2013-02-25 10:26:00,40.6,31.6,30.03,SSE,158,5.1,5.8,70,0.00,,CLR,0.00,VWS V14.01,2013-02-25 16:26:00,
2013-02-25 10:30:00,40.8,31.8,30.03,ENE,68,3.0,5.8,70,0.00,,OVC025,0.00,VWS V14.01,2013-02-25 16:30:00,
2013-02-25 10:31:00,41.0,30.9,30.03,East,90,3.0,6.3,67,0.00,,CLR,0.00,VWS V14.01,2013-02-25 16:31:00,
2013-02-25 10:35:00,41.2,31.8,30.03,ESE,112,2.1,6.7,69,0.00,,OVC025,0.00,VWS V14.01,2013-02-25 16:35:00,
2013-02-25 10:36:00,41.3,32.0,30.03,ENE,68,6.0,6.7,69,0.00,,CLR,0.00,VWS V14.01,2013-02-25 16:36:00,
2013-02-25 10:40:00,41.5,31.0,30.03,SE,135,3.8,5.8,66,0.00,,OVC025,0.00,VWS V14.01,2013-02-25 16:40:00,
2013-02-25 10:41:00,41.5,31.4,30.03,SE,135,2.6,3.4,67,0.00,,CLR,0.00,VWS V14.01,2013-02-25 16:41:00,
2013-02-25 10:45:00,41.7,31.9,30.03,NE,45,5.1,7.7,68,0.00,,OVC025,0.00,VWS V14.01,2013-02-25 16:45:00,
2013-02-25 10:46:00,41.7,31.2,30.03,NE,45,6.8,7.7,66,0.00,,CLR,0.00,VWS V14.01,2013-02-25 16:46:00,
2013-02-25 10:50:00,41.9,31.0,30.03,NE,45,5.5,6.3,65,0.00,,OVC025,0.00,VWS V14.01,2013-02-25 16:50:00,
2013-02-25 10:51:00,42.1,31.2,30.03,South,180,5.1,7.2,65,0.00,,CLR,0.00,VWS V14.01,2013-02-25 16:51:00,
2013-02-25 10:55:00,42.1,30.4,30.03,East,90,2.6,2.9,63,0.00,,OVC025,0.00,VWS V14.01,2013-02-25 16:55:00,
2013-02-25 10:56:00,42.2,31.3,30.03,ENE,68,6.0,10.1,65,0.00,,CLR,0.00,VWS V14.01,2013-02-25 16:56:00,
2013-02-25 11:00:00,41.9,31.4,30.03,East,90,5.5,6.7,66,0.00,,OVC025,0.00,VWS V14.01,2013-02-25 17:00:00,
2013-02-25 11:01:00,42.2,32.1,30.03,ENE,68,7.2,8.2,67,0.00,,CLR,0.00,VWS V14.01,2013-02-25 17:01:00,
2013-02-25 11:05:00,42.4,31.9,30.03,NE,45,9.4,10.6,66,0.00,,OVC025,0.00,VWS V14.01,2013-02-25 17:05:00,
2013-02-25 11:06:00,42.4,31.5,30.03,ENE,68,5.5,9.1,65,0.00,,CLR,0.00,VWS V14.01,2013-02-25 17:06:00,
2013-02-25 11:10:00,42.2,31.0,30.03,East,90,4.7,9.6,64,0.00,,OVC025,0.00,VWS V14.01,2013-02-25 17:10:00,
2013-02-25 11:11:00,42.4,31.1,30.03,ENE,68,6.8,7.7,64,0.00,,CLR,0.00,VWS V14.01,2013-02-25 17:11:00,
2013-02-25 11:15:00,42.8,31.5,30.03,East,90,6.4,7.2,64,0.00,,OVC025,0.00,VWS V14.01,2013-02-25 17:15:00,
2013-02-25 11:16:00,42.6,30.9,30.03,East,90,8.1,9.1,63,0.00,,CLR,0.00,VWS V14.01,2013-02-25 17:16:00,
2013-02-25 11:20:00,42.8,31.5,30.03,NE,45,5.1,5.8,64,0.00,,OVC025,0.00,VWS V14.01,2013-02-25 17:20:00,
2013-02-25 11:21:00,43.2,31.8,30.03,NE,45,5.1,5.8,64,0.00,,CLR,0.00,VWS V14.01,2013-02-25 17:21:00,
2013-02-25 11:25:00,43.0,30.9,30.03,NE,45,3.8,5.8,62,0.00,,OVC025,0.00,VWS V14.01,2013-02-25 17:25:00,
2013-02-25 11:26:00,43.3,30.8,30.03,NE,45,6.4,7.2,61,0.00,,CLR,0.00,VWS V14.01,2013-02-25 17:26:00,
2013-02-25 11:30:00,43.5,31.0,30.03,NE,45,4.3,4.8,61,0.00,,OVC025,0.00,VWS V14.01,2013-02-25 17:30:00,
2013-02-25 11:31:00,43.7,31.5,30.03,NE,45,4.3,4.8,62,0.00,,CLR,0.00,VWS V14.01,2013-02-25 17:31:00,
2013-02-25 11:35:00,43.7,30.7,30.03,ENE,68,11.5,13.0,60,0.00,,OVC025,0.00,VWS V14.01,2013-02-25 17:35:00,
2013-02-25 11:37:00,43.7,30.7,30.03,NE,45,5.5,7.2,60,0.00,,CLR,0.00,VWS V14.01,2013-02-25 17:37:00,
2013-02-25 11:40:00,43.5,31.0,30.03,ENE,68,3.8,6.3,61,0.00,,OVC025,0.00,VWS V14.01,2013-02-25 17:40:00,
2013-02-25 11:41:00,43.7,31.1,30.03,East,90,1.7,7.2,61,0.00,,CLR,0.00,VWS V14.01,2013-02-25 17:41:00,
2013-02-25 11:45:00,43.9,31.3,30.03,NE,45,2.6,2.9,61,0.00,,OVC025,0.00,VWS V14.01,2013-02-25 17:45:00,
2013-02-25 11:46:00,43.9,31.7,30.03,ENE,68,5.1,5.8,62,0.00,,CLR,0.00,VWS V14.01,2013-02-25 17:46:00,
2013-02-25 11:50:00,44.0,31.5,30.03,ENE,68,7.2,8.2,61,0.00,,OVC025,0.00,VWS V14.01,2013-02-25 17:50:00,
2013-02-25 11:52:00,43.7,30.7,30.03,ENE,68,4.7,5.8,60,0.00,,CLR,0.00,VWS V14.01,2013-02-25 17:52:00,
2013-02-25 11:55:00,44.0,31.5,30.03,NE,45,6.8,7.7,61,0.00,,OVC025,0.00,VWS V14.01,2013-02-25 17:55:00,
2013-02-25 11:57:00,44.0,31.1,30.03,NE,45,7.7,8.7,60,0.00,,CLR,0.00,VWS V14.01,2013-02-25 17:57:00,
2013-02-25 12:00:00,44.2,31.2,30.03,East,90,10.2,11.5,60,0.00,,OVC025,0.00,VWS V14.01,2013-02-25 18:00:00,
2013-02-25 12:02:00,44.4,31.4,30.03,ESE,112,6.0,6.7,60,0.00,,CLR,0.00,VWS V14.01,2013-02-25 18:02:00,
2013-02-25 12:05:00,44.2,30.8,30.03,SE,135,7.7,8.7,59,0.00,,OVC025,0.00,VWS V14.01,2013-02-25 18:05:00,
2013-02-25 12:07:00,44.4,31.4,30.03,ENE,68,7.2,13.0,60,0.00,,CLR,0.00,VWS V14.01,2013-02-25 18:07:00,
2013-02-25 12:10:00,44.4,31.0,30.03,ENE,68,7.7,10.6,59,0.00,,OVC025,0.00,VWS V14.01,2013-02-25 18:10:00,
2013-02-25 12:12:00,44.4,31.4,30.03,NE,45,6.4,7.2,60,0.00,,CLR,0.00,VWS V14.01,2013-02-25 18:12:00,
2013-02-25 12:15:00,44.6,31.2,30.03,NNE,22,5.1,7.2,59,0.00,,OVC025,0.00,VWS V14.01,2013-02-25 18:15:00,
2013-02-25 12:17:00,45.0,31.9,30.03,NNE,22,6.8,7.7,60,0.00,,CLR,0.00,VWS V14.01,2013-02-25 18:17:00,
2013-02-25 12:20:00,45.0,31.5,30.03,NNE,22,6.8,7.7,59,0.00,,OVC025,0.00,VWS V14.01,2013-02-25 18:20:00,
2013-02-25 12:22:00,45.1,32.1,30.03,SE,135,6.4,7.2,60,0.00,,CLR,0.00,VWS V14.01,2013-02-25 18:22:00,
2013-02-25 12:25:00,45.3,32.3,30.03,ENE,68,3.8,6.3,60,0.00,,OVC025,0.00,VWS V14.01,2013-02-25 18:25:00,
2013-02-25 12:27:00,45.3,31.8,30.03,East,90,6.4,7.2,59,0.00,,CLR,0.00,VWS V14.01,2013-02-25 18:27:00,
2013-02-25 12:30:00,45.3,31.8,30.03,East,90,6.4,7.2,59,0.00,,OVC025,0.00,VWS V14.01,2013-02-25 18:30:00,
2013-02-25 12:32:00,45.5,32.0,30.03,ENE,68,2.6,2.9,59,0.00,,CLR,0.00,VWS V14.01,2013-02-25 18:32:00,
2013-02-25 12:35:00,45.7,32.2,30.03,NE,45,4.7,6.7,59,0.00,,OVC025,0.00,VWS V14.01,2013-02-25 18:35:00,
2013-02-25 12:37:00,45.8,32.3,30.03,NE,45,4.7,5.3,59,0.00,,CLR,0.00,VWS V14.01,2013-02-25 18:37:00,
2013-02-25 12:40:00,45.8,31.9,30.03,ESE,112,7.7,8.7,58,0.00,,OVC025,0.00,VWS V14.01,2013-02-25 18:40:00,
2013-02-25 12:42:00,46.2,32.7,30.03,ESE,112,7.7,8.7,59,0.00,,CLR,0.00,VWS V14.01,2013-02-25 18:42:00,
2013-02-25 12:45:00,46.4,32.9,30.03,ESE,112,7.7,8.7,59,0.00,,OVC025,0.00,VWS V14.01,2013-02-25 18:45:00,
2013-02-25 12:47:00,46.4,32.4,30.03,NNE,22,7.7,8.7,58,0.00,,CLR,0.00,VWS V14.01,2013-02-25 18:47:00,
2013-02-25 12:50:00,46.4,32.4,30.03,ENE,68,6.4,8.7,58,0.00,,OVC025,0.00,VWS V14.01,2013-02-25 18:50:00,
2013-02-25 12:52:00,46.2,32.3,30.03,East,90,9.4,10.6,58,0.00,,CLR,0.00,VWS V14.01,2013-02-25 18:52:00,
2013-02-25 12:55:00,46.4,32.4,30.03,ENE,68,6.8,10.6,58,0.00,,OVC025,0.00,VWS V14.01,2013-02-25 18:55:00,
2013-02-25 12:57:00,46.2,32.3,30.03,ENE,68,2.1,2.4,58,0.00,,CLR,0.00,VWS V14.01,2013-02-25 18:57:00,
2013-02-25 13:00:00,46.4,32.4,30.03,NE,45,4.7,6.7,58,0.00,,OVC025,0.00,VWS V14.01,2013-02-25 19:00:00,
2013-02-25 13:03:00,46.4,32.0,30.03,NE,45,5.1,8.2,57,0.00,,CLR,0.00,VWS V14.01,2013-02-25 19:03:00,
2013-02-25 13:05:00,46.6,32.6,30.03,NE,45,5.1,5.8,58,0.00,,OVC025,0.00,VWS V14.01,2013-02-25 19:05:00,
2013-02-25 13:08:00,46.2,32.3,30.03,NE,45,6.8,7.7,58,0.00,,CLR,0.00,VWS V14.01,2013-02-25 19:08:00,
2013-02-25 13:10:00,46.6,32.2,30.03,ENE,68,3.0,11.5,57,0.00,,OVC025,0.00,VWS V14.01,2013-02-25 19:10:00,
2013-02-25 13:13:00,46.8,32.3,30.00,NE,45,3.0,6.7,57,0.00,,CLR,0.00,VWS V14.01,2013-02-25 19:13:00,
2013-02-25 13:15:00,46.6,32.2,30.00,ENE,68,4.7,5.3,57,0.00,,OVC025,0.00,VWS V14.01,2013-02-25 19:15:00,
2013-02-25 13:18:00,46.8,32.3,30.00,SSE,158,5.5,7.7,57,0.00,,CLR,0.00,VWS V14.01,2013-02-25 19:18:00,
2013-02-25 13:20:00,46.8,32.3,30.00,SSW,202,5.1,8.2,57,0.00,,OVC025,0.00,VWS V14.01,2013-02-25 19:20:00,
2013-02-25 13:23:00,46.6,31.7,30.00,NE,45,11.5,13.0,56,0.00,,CLR,0.00,VWS V14.01,2013-02-25 19:23:00,
2013-02-25 13:25:00,46.6,32.2,30.00,NE,45,6.4,13.0,57,0.00,,OVC025,0.00,VWS V14.01,2013-02-25 19:25:00,
2013-02-25 13:28:00,46.2,32.3,30.00,NE,45,4.7,13.0,58,0.00,,CLR,0.00,VWS V14.01,2013-02-25 19:28:00,
2013-02-25 13:30:00,46.4,32.4,30.00,NE,45,4.7,5.3,58,0.00,,OVC025,0.00,VWS V14.01,2013-02-25 19:30:00,
2013-02-25 13:33:00,46.4,32.4,30.00,ENE,68,6.0,8.2,58,0.00,,CLR,0.00,VWS V14.01,2013-02-25 19:33:00,
2013-02-25 13:35:00,46.6,33.0,30.00,ENE,68,6.0,6.7,59,0.00,,OVC025,0.00,VWS V14.01,2013-02-25 19:35:00,
2013-02-25 13:38:00,46.4,32.4,30.00,ENE,68,3.8,4.3,58,0.00,,CLR,0.00,VWS V14.01,2013-02-25 19:38:00,
2013-02-25 13:40:00,46.4,32.4,30.00,East,90,7.2,8.2,58,0.00,,OVC025,0.00,VWS V14.01,2013-02-25 19:40:00,
2013-02-25 13:43:00,46.6,33.0,30.03,NE,45,6.0,6.7,59,0.00,,CLR,0.00,VWS V14.01,2013-02-25 19:43:00,
2013-02-25 13:45:00,46.4,32.9,30.03,ENE,68,5.5,6.7,59,0.00,,OVC025,0.00,VWS V14.01,2013-02-25 19:45:00,
2013-02-25 13:48:00,46.2,32.3,30.03,NE,45,7.7,8.7,58,0.00,,CLR,0.00,VWS V14.01,2013-02-25 19:48:00,
2013-02-25 13:50:00,45.7,32.2,30.03,ENE,68,6.0,7.2,59,0.00,,OVC025,0.00,VWS V14.01,2013-02-25 19:50:00,
2013-02-25 13:53:00,46.0,32.5,30.03,ENE,68,2.6,8.7,59,0.00,,CLR,0.00,VWS V14.01,2013-02-25 19:53:00,
2013-02-25 13:55:00,46.0,32.5,30.03,ENE,68,2.6,2.9,59,0.00,,OVC025,0.00,VWS V14.01,2013-02-25 19:55:00,
2013-02-25 13:58:00,46.0,32.5,30.00,ENE,68,3.8,6.3,59,0.00,,CLR,0.00,VWS V14.01,2013-02-25 19:58:00,
2013-02-25 14:00:00,46.0,32.5,30.00,ENE,68,3.8,4.3,59,0.00,,OVC025,0.00,VWS V14.01,2013-02-25 20:00:00,
2013-02-25 14:03:00,46.2,32.7,30.00,East,90,5.1,8.7,59,0.00,,CLR,0.00,VWS V14.01,2013-02-25 20:03:00,
2013-02-25 14:05:00,46.2,32.3,30.00,East,90,5.1,5.8,58,0.00,,OVC025,0.00,VWS V14.01,2013-02-25 20:05:00,
2013-02-25 14:08:00,46.0,32.5,30.00,NNW,338,4.7,5.3,59,0.00,,CLR,0.00,VWS V14.01,2013-02-25 20:08:00,
2013-02-25 14:10:00,46.2,32.7,30.00,NNW,338,4.7,5.3,59,0.00,,OVC025,0.00,VWS V14.01,2013-02-25 20:10:00,
2013-02-25 14:13:00,46.2,32.3,29.97,ENE,68,2.6,8.2,58,0.00,,CLR,0.00,VWS V14.01,2013-02-25 20:13:00,
2013-02-25 14:15:00,46.0,32.1,29.97,NE,45,5.1,5.8,58,0.00,,OVC025,0.00,VWS V14.01,2013-02-25 20:15:00,
2013-02-25 14:18:00,45.8,31.9,29.97,East,90,10.2,11.5,58,0.00,,CLR,0.00,VWS V14.01,2013-02-25 20:18:00,
2013-02-25 14:20:00,46.0,31.7,29.97,ENE,68,8.1,11.5,57,0.00,,OVC025,0.00,VWS V14.01,2013-02-25 20:20:00,
2013-02-25 14:23:00,46.2,32.3,29.97,NE,45,4.3,6.7,58,0.04,,CLR,0.04,VWS V14.01,2013-02-25 20:23:00,
2013-02-25 14:25:00,46.2,31.8,29.97,ENE,68,3.8,4.8,57,0.04,,OVC025,0.04,VWS V14.01,2013-02-25 20:25:00,
2013-02-25 14:28:00,46.0,31.2,29.97,ENE,68,5.1,6.7,56,0.04,,CLR,0.04,VWS V14.01,2013-02-25 20:28:00,
2013-02-25 14:30:00,45.8,30.6,29.97,ENE,68,4.3,5.8,55,0.04,,OVC025,0.04,VWS V14.01,2013-02-25 20:30:00,
2013-02-25 14:33:00,46.0,31.2,29.97,NE,45,6.0,6.7,56,0.04,,CLR,0.04,VWS V14.01,2013-02-25 20:33:00,
2013-02-25 14:35:00,46.0,31.2,29.97,ENE,68,9.4,10.6,56,0.04,,OVC025,0.04,VWS V14.01,2013-02-25 20:35:00,
2013-02-25 14:38:00,46.0,31.2,29.97,ENE,68,5.5,6.7,56,0.04,,CLR,0.04,VWS V14.01,2013-02-25 20:38:00,
2013-02-25 14:40:00,46.2,31.4,29.97,ENE,68,6.8,7.7,56,0.04,,OVC025,0.04,VWS V14.01,2013-02-25 20:40:00,
2013-02-25 14:44:00,45.8,31.1,29.94,NE,45,5.5,6.7,56,0.04,,CLR,0.04,VWS V14.01,2013-02-25 20:44:00,
2013-02-25 14:45:00,45.8,31.5,29.94,ENE,68,6.8,7.7,57,0.04,,OVC025,0.04,VWS V14.01,2013-02-25 20:45:00,
2013-02-25 14:49:00,45.8,32.8,29.94,NE,45,6.4,7.2,60,0.04,,CLR,0.04,VWS V14.01,2013-02-25 20:49:00,
2013-02-25 14:50:00,45.8,32.8,29.94,NE,45,4.7,7.2,60,0.04,,OVC025,0.04,VWS V14.01,2013-02-25 20:50:00,
2013-02-25 14:54:00,45.7,32.2,29.94,ENE,68,8.9,14.0,59,0.04,,CLR,0.04,VWS V14.01,2013-02-25 20:54:00,
2013-02-25 14:55:00,45.7,32.2,29.94,ENE,68,8.9,14.0,59,0.04,,OVC025,0.04,VWS V14.01,2013-02-25 20:55:00,
2013-02-25 14:59:00,45.5,32.0,29.94,NNE,22,10.2,11.5,59,0.04,,CLR,0.04,VWS V14.01,2013-02-25 20:59:00,
2013-02-25 15:00:00,45.5,32.0,29.94,ENE,68,6.4,11.5,59,0.04,,OVC025,0.04,VWS V14.01,2013-02-25 21:00:00,
2013-02-25 15:04:00,45.7,32.6,29.94,ENE,68,8.1,9.1,60,0.04,,CLR,0.04,VWS V14.01,2013-02-25 21:04:00,
2013-02-25 15:05:00,45.7,32.6,29.94,ENE,68,1.7,9.1,60,0.04,,OVC025,0.04,VWS V14.01,2013-02-25 21:05:00,
2013-02-25 15:09:00,45.0,31.9,29.94,ENE,68,8.1,10.6,60,0.04,,CLR,0.04,VWS V14.01,2013-02-25 21:09:00,
2013-02-25 15:10:00,45.0,31.9,29.94,ENE,68,8.1,10.6,60,0.04,,OVC025,0.04,VWS V14.01,2013-02-25 21:10:00,
2013-02-25 15:14:00,45.1,32.1,29.91,ENE,68,3.0,12.5,60,0.04,,CLR,0.04,VWS V14.01,2013-02-25 21:14:00,
2013-02-25 15:15:00,45.1,32.1,29.91,ENE,68,3.0,12.5,60,0.04,,OVC025,0.04,VWS V14.01,2013-02-25 21:15:00,
2013-02-25 15:19:00,45.0,31.5,29.91,ENE,68,11.1,15.4,59,0.04,,CLR,0.04,VWS V14.01,2013-02-25 21:19:00,
2013-02-25 15:20:00,45.0,31.5,29.91,ENE,68,11.1,15.4,59,0.04,,OVC025,0.04,VWS V14.01,2013-02-25 21:20:00,
2013-02-25 15:24:00,45.0,31.5,29.91,ENE,68,6.4,9.1,59,0.04,,CLR,0.04,VWS V14.01,2013-02-25 21:24:00,
2013-02-25 15:25:00,45.0,31.5,29.91,ENE,68,6.4,9.1,59,0.04,,OVC025,0.04,VWS V14.01,2013-02-25 21:25:00,
2013-02-25 15:29:00,45.0,31.5,29.91,NE,45,9.4,12.0,59,0.00,,CLR,0.04,VWS V14.01,2013-02-25 21:29:00,
2013-02-25 15:30:00,45.0,31.5,29.91,NE,45,9.4,12.0,59,0.00,,OVC025,0.04,VWS V14.01,2013-02-25 21:30:00,
2013-02-25 15:34:00,45.1,32.1,29.91,NE,45,4.7,5.3,60,0.00,,CLR,0.04,VWS V14.01,2013-02-25 21:34:00,
2013-02-25 15:35:00,45.1,32.1,29.91,NE,45,4.7,5.3,60,0.00,,OVC025,0.04,VWS V14.01,2013-02-25 21:35:00,
2013-02-25 15:39:00,45.0,32.7,29.91,ENE,68,8.1,9.1,62,0.00,,CLR,0.04,VWS V14.01,2013-02-25 21:39:00,
2013-02-25 15:40:00,45.0,32.7,29.91,ENE,68,8.1,9.1,62,0.00,,OVC025,0.04,VWS V14.01,2013-02-25 21:40:00,
2013-02-25 15:44:00,45.0,33.5,29.91,NE,45,11.5,13.0,64,0.00,,CLR,0.04,VWS V14.01,2013-02-25 21:44:00,
2013-02-25 15:45:00,44.8,33.3,29.91,NE,45,11.5,13.0,64,0.00,,OVC025,0.04,VWS V14.01,2013-02-25 21:45:00,
2013-02-25 15:49:00,44.8,33.3,29.91,NE,45,3.8,5.8,64,0.00,,CLR,0.04,VWS V14.01,2013-02-25 21:49:00,
2013-02-25 15:50:00,44.8,33.3,29.91,NE,45,3.8,5.8,64,0.00,,OVC025,0.04,VWS V14.01,2013-02-25 21:50:00,
2013-02-25 15:54:00,44.6,33.2,29.91,NE,45,7.2,8.2,64,0.00,,CLR,0.04,VWS V14.01,2013-02-25 21:54:00,
2013-02-25 15:55:00,44.6,33.2,29.91,NE,45,7.2,8.2,64,0.00,,OVC025,0.04,VWS V14.01,2013-02-25 21:55:00,
2013-02-25 15:59:00,44.6,33.2,29.91,ENE,68,3.0,7.2,64,0.00,,CLR,0.04,VWS V14.01,2013-02-25 21:59:00,
2013-02-25 16:00:00,44.4,33.0,29.91,East,90,6.0,7.2,64,0.00,,OVC025,0.04,VWS V14.01,2013-02-25 22:00:00,
2013-02-25 16:04:00,44.6,33.6,29.91,East,90,5.1,5.8,65,0.00,,CLR,0.04,VWS V14.01,2013-02-25 22:04:00,
2013-02-25 16:05:00,44.6,33.6,29.91,East,90,5.1,5.8,65,0.00,,OVC025,0.04,VWS V14.01,2013-02-25 22:05:00,
2013-02-25 16:09:00,44.4,33.8,29.91,East,90,3.8,6.7,66,0.00,,CLR,0.04,VWS V14.01,2013-02-25 22:09:00,
2013-02-25 16:10:00,44.4,33.8,29.91,East,90,3.8,6.7,66,0.00,,OVC025,0.04,VWS V14.01,2013-02-25 22:10:00,
2013-02-25 16:14:00,44.4,33.4,29.91,NE,45,5.5,6.3,65,0.00,,CLR,0.04,VWS V14.01,2013-02-25 22:14:00,
2013-02-25 16:15:00,44.4,33.4,29.91,NE,45,5.5,6.3,65,0.00,,OVC025,0.04,VWS V14.01,2013-02-25 22:15:00,
2013-02-25 16:20:00,44.2,33.2,29.91,East,90,7.2,8.2,65,0.00,,CLR,0.04,VWS V14.01,2013-02-25 22:20:00,
2013-02-25 16:25:00,44.2,33.2,29.91,East,90,6.4,7.2,65,0.00,,CLR,0.04,VWS V14.01,2013-02-25 22:25:00,
2013-02-25 16:30:00,44.0,33.4,29.88,NE,45,2.6,7.7,66,0.00,,CLR,0.04,VWS V14.01,2013-02-25 22:30:00,
2013-02-25 16:35:00,43.7,33.5,29.88,ENE,68,4.7,10.1,67,0.00,,CLR,0.04,VWS V14.01,2013-02-25 22:35:00,
2013-02-25 16:40:00,43.5,33.7,29.88,NE,45,3.8,6.3,68,0.00,,CLR,0.04,VWS V14.01,2013-02-25 22:40:00,
2013-02-25 16:45:00,43.5,34.0,29.88,ENE,68,8.9,10.1,69,0.00,,CLR,0.04,VWS V14.01,2013-02-25 22:45:00,
2013-02-25 16:50:00,43.5,33.7,29.88,ENE,68,7.2,8.2,68,0.00,,CLR,0.04,VWS V14.01,2013-02-25 22:50:00,
2013-02-25 16:55:00,43.3,33.9,29.88,ENE,68,6.8,12.0,69,0.00,,CLR,0.04,VWS V14.01,2013-02-25 22:55:00,
2013-02-25 17:00:00,43.0,33.5,29.88,NE,45,5.5,6.7,69,0.00,,CLR,0.04,VWS V14.01,2013-02-25 23:00:00,
2013-02-25 17:05:00,43.0,34.2,29.88,NE,45,7.2,17.3,71,0.00,,OVC025,0.04,VWS V14.01,2013-02-25 23:05:00,
2013-02-25 17:06:00,42.8,34.4,29.88,NE,45,7.7,8.7,72,0.00,,CLR,0.04,VWS V14.01,2013-02-25 23:06:00,
2013-02-25 17:10:00,42.6,34.9,29.88,NE,45,6.8,10.6,74,0.00,,OVC025,0.04,VWS V14.01,2013-02-25 23:10:00,
2013-02-25 17:11:00,42.6,34.9,29.88,East,90,3.8,4.3,74,0.00,,CLR,0.04,VWS V14.01,2013-02-25 23:11:00,
2013-02-25 17:15:00,42.6,34.9,29.88,NE,45,4.7,5.3,74,0.00,,OVC025,0.04,VWS V14.01,2013-02-25 23:15:00,
2013-02-25 17:16:00,42.6,34.9,29.88,ENE,68,6.8,7.7,74,0.00,,CLR,0.04,VWS V14.01,2013-02-25 23:16:00,
2013-02-25 17:20:00,42.2,34.6,29.88,ENE,68,4.3,4.8,74,0.00,,OVC025,0.04,VWS V14.01,2013-02-25 23:20:00,
2013-02-25 17:21:00,42.4,34.7,29.88,ENE,68,2.6,7.7,74,0.00,,CLR,0.04,VWS V14.01,2013-02-25 23:21:00,
2013-02-25 17:25:00,42.2,34.9,29.88,ENE,68,5.1,9.6,75,0.00,,OVC025,0.04,VWS V14.01,2013-02-25 23:25:00,
2013-02-25 17:26:00,42.2,34.9,29.91,East,90,6.8,7.7,75,0.00,,CLR,0.04,VWS V14.01,2013-02-25 23:26:00,
2013-02-25 17:30:00,42.2,34.9,29.91,NE,45,11.5,13.0,75,0.00,,OVC025,0.04,VWS V14.01,2013-02-25 23:30:00,
2013-02-25 17:31:00,42.1,35.1,29.91,ENE,68,9.4,10.6,76,0.00,,CLR,0.04,VWS V14.01,2013-02-25 23:31:00,
2013-02-25 17:35:00,41.9,34.9,29.91,ENE,68,6.4,7.2,76,0.00,,OVC025,0.04,VWS V14.01,2013-02-25 23:35:00,
2013-02-25 17:36:00,41.9,34.9,29.91,ENE,68,6.0,8.7,76,0.00,,CLR,0.04,VWS V14.01,2013-02-25 23:36:00,
2013-02-25 17:40:00,41.7,34.7,29.91,ENE,68,10.6,12.0,76,0.00,,OVC025,0.04,VWS V14.01,2013-02-25 23:40:00,
2013-02-25 17:41:00,41.7,34.7,29.91,NE,45,6.4,12.0,76,0.00,,CLR,0.04,VWS V14.01,2013-02-25 23:41:00,
2013-02-25 17:45:00,41.5,34.5,29.91,ENE,68,4.3,6.7,76,0.00,,OVC025,0.04,VWS V14.01,2013-02-25 23:45:00,
2013-02-25 17:46:00,41.5,34.9,29.91,NE,45,3.0,4.8,77,0.00,,CLR,0.04,VWS V14.01,2013-02-25 23:46:00,
2013-02-25 17:50:00,41.5,34.9,29.91,NE,45,3.0,3.4,77,0.00,,OVC025,0.04,VWS V14.01,2013-02-25 23:50:00,
2013-02-25 17:51:00,41.3,34.7,29.91,NE,45,3.0,3.4,77,0.00,,CLR,0.04,VWS V14.01,2013-02-25 23:51:00,
2013-02-25 17:55:00,41.3,34.7,29.91,NE,45,7.2,8.2,77,0.00,,OVC025,0.04,VWS V14.01,2013-02-25 23:55:00,
2013-02-25 17:56:00,41.3,34.7,29.91,ENE,68,3.0,4.8,77,0.00,,CLR,0.04,VWS V14.01,2013-02-25 23:56:00,
2013-02-25 18:00:00,41.3,34.7,29.91,ENE,68,5.5,6.7,77,0.00,,OVC025,0.04,VWS V14.01,2013-02-26 00:00:00,
2013-02-25 18:01:00,41.2,34.8,29.91,NE,45,5.1,6.7,78,0.00,,CLR,0.04,VWS V14.01,2013-02-26 00:01:00,
2013-02-25 18:05:00,41.0,35.0,29.91,ENE,68,7.2,8.2,79,0.00,,OVC025,0.04,VWS V14.01,2013-02-26 00:05:00,
2013-02-25 18:06:00,41.0,35.0,29.91,ENE,68,7.2,8.2,79,0.00,,CLR,0.04,VWS V14.01,2013-02-26 00:06:00,
2013-02-25 18:10:00,40.6,35.0,29.91,ENE,68,5.1,9.1,80,0.00,,OVC025,0.04,VWS V14.01,2013-02-26 00:10:00,
2013-02-25 18:11:00,40.6,35.0,29.91,NE,45,6.8,8.2,80,0.00,,CLR,0.04,VWS V14.01,2013-02-26 00:11:00,
2013-02-25 18:15:00,40.6,35.0,29.91,ENE,68,4.7,6.7,80,0.00,,OVC025,0.04,VWS V14.01,2013-02-26 00:15:00,
2013-02-25 18:16:00,40.6,35.0,29.91,ENE,68,3.0,3.4,80,0.00,,CLR,0.04,VWS V14.01,2013-02-26 00:16:00,
2013-02-25 18:20:00,40.5,34.8,29.91,ENE,68,6.4,12.0,80,0.00,,OVC025,0.04,VWS V14.01,2013-02-26 00:20:00,
2013-02-25 18:21:00,40.5,34.8,29.91,ENE,68,5.1,9.1,80,0.00,,CLR,0.04,VWS V14.01,2013-02-26 00:21:00,
2013-02-25 18:26:00,40.3,34.9,29.91,ENE,68,4.7,8.7,81,0.00,,CLR,0.04,VWS V14.01,2013-02-26 00:26:00,
2013-02-25 18:30:00,40.1,34.7,29.91,ENE,68,4.7,5.3,81,0.00,,OVC025,0.04,VWS V14.01,2013-02-26 00:30:00,
2013-02-25 18:31:00,40.1,34.4,29.91,NE,45,5.1,5.8,80,0.00,,CLR,0.04,VWS V14.01,2013-02-26 00:31:00,
2013-02-25 18:36:00,39.9,34.6,29.91,NE,45,11.1,12.5,81,0.00,,CLR,0.04,VWS V14.01,2013-02-26 00:36:00,
2013-02-25 18:40:00,39.7,34.4,29.91,NE,45,11.1,12.5,81,0.00,,OVC025,0.04,VWS V14.01,2013-02-26 00:40:00,
2013-02-25 18:41:00,39.9,34.6,29.88,ENE,68,6.8,12.5,81,0.00,,CLR,0.04,VWS V14.01,2013-02-26 00:41:00,
2013-02-25 18:45:00,39.7,34.4,29.88,ENE,68,6.8,7.7,81,0.00,,OVC025,0.04,VWS V14.01,2013-02-26 00:45:00,
2013-02-25 18:46:00,39.7,34.4,29.88,NE,45,7.7,8.7,81,0.00,,CLR,0.04,VWS V14.01,2013-02-26 00:46:00,
2013-02-25 18:50:00,39.7,34.4,29.88,NE,45,6.0,6.7,81,0.00,,OVC025,0.04,VWS V14.01,2013-02-26 00:50:00,
2013-02-25 18:51:00,39.7,34.4,29.88,NE,45,11.5,14.4,81,0.00,,CLR,0.04,VWS V14.01,2013-02-26 00:51:00,
2013-02-25 18:55:00,39.7,34.4,29.88,ENE,68,11.1,12.5,81,0.00,,OVC025,0.04,VWS V14.01,2013-02-26 00:55:00,
2013-02-25 18:56:00,39.7,34.4,29.91,NE,45,4.7,13.5,81,0.00,,CLR,0.04,VWS V14.01,2013-02-26 00:56:00,
2013-02-25 19:00:00,39.5,34.2,29.91,NE,45,6.8,7.7,81,0.00,,OVC025,0.04,VWS V14.01,2013-02-26 01:00:00,
2013-02-25 19:01:00,39.5,34.2,29.91,NE,45,6.8,7.7,81,0.00,,CLR,0.04,VWS V14.01,2013-02-26 01:01:00,
2013-02-25 19:05:00,39.4,34.0,29.91,NE,45,6.0,6.7,81,0.00,,OVC025,0.04,VWS V14.01,2013-02-26 01:05:00,
2013-02-25 19:07:00,39.4,34.0,29.91,ENE,68,8.1,9.1,81,0.00,,CLR,0.04,VWS V14.01,2013-02-26 01:07:00,
2013-02-25 19:10:00,39.4,34.0,29.91,ENE,68,9.4,13.0,81,0.00,,OVC025,0.04,VWS V14.01,2013-02-26 01:10:00,
2013-02-25 19:12:00,39.4,34.0,29.88,East,90,7.2,8.2,81,0.00,,CLR,0.04,VWS V14.01,2013-02-26 01:12:00,
2013-02-25 19:15:00,39.4,34.0,29.88,NE,45,6.8,7.7,81,0.00,,OVC025,0.04,VWS V14.01,2013-02-26 01:15:00,
2013-02-25 19:17:00,39.4,34.3,29.88,NE,45,9.4,10.6,82,0.00,,CLR,0.04,VWS V14.01,2013-02-26 01:17:00,
2013-02-25 19:20:00,39.2,34.2,29.88,NE,45,17.4,19.7,82,0.00,,OVC025,0.04,VWS V14.01,2013-02-26 01:20:00,
2013-02-25 19:22:00,39.2,33.9,29.88,NE,45,17.4,19.7,81,0.00,,CLR,0.04,VWS V14.01,2013-02-26 01:22:00,
2013-02-25 19:25:00,39.2,33.9,29.88,ENE,68,6.4,19.7,81,0.00,,OVC025,0.04,VWS V14.01,2013-02-26 01:25:00,
2013-02-25 19:27:00,39.0,33.7,29.91,NNW,338,8.1,10.6,81,0.00,,CLR,0.04,VWS V14.01,2013-02-26 01:27:00,
2013-02-25 19:30:00,39.0,33.7,29.91,NNE,22,3.8,7.7,81,0.00,,OVC025,0.04,VWS V14.01,2013-02-26 01:30:00,
2013-02-25 19:32:00,38.8,33.5,29.91,ENE,68,9.4,10.6,81,0.00,,CLR,0.04,VWS V14.01,2013-02-26 01:32:00,
2013-02-25 19:35:00,38.8,33.5,29.91,NE,45,6.4,7.2,81,0.00,,OVC025,0.04,VWS V14.01,2013-02-26 01:35:00,
2013-02-25 19:37:00,38.7,33.6,29.91,NNE,22,10.6,16.8,82,0.00,,CLR,0.04,VWS V14.01,2013-02-26 01:37:00,
2013-02-25 19:40:00,38.7,33.6,29.91,ENE,68,4.3,12.0,82,0.00,,OVC025,0.04,VWS V14.01,2013-02-26 01:40:00,
2013-02-25 19:42:00,38.7,33.3,29.91,ENE,68,10.2,16.4,81,0.00,,CLR,0.04,VWS V14.01,2013-02-26 01:42:00,
2013-02-25 19:45:00,38.7,33.3,29.91,NE,45,7.2,11.5,81,0.00,,OVC025,0.04,VWS V14.01,2013-02-26 01:45:00,
2013-02-25 19:47:00,38.5,33.5,29.91,NE,45,5.1,14.9,82,0.00,,CLR,0.04,VWS V14.01,2013-02-26 01:47:00,
2013-02-25 19:50:00,38.5,33.5,29.91,NE,45,4.7,6.3,82,0.00,,OVC025,0.04,VWS V14.01,2013-02-26 01:50:00,
2013-02-25 19:52:00,38.5,33.5,29.91,NE,45,4.7,10.6,82,0.00,,CLR,0.04,VWS V14.01,2013-02-26 01:52:00,
2013-02-25 19:55:00,38.5,33.5,29.91,ENE,68,10.6,12.0,82,0.00,,OVC025,0.04,VWS V14.01,2013-02-26 01:55:00,
2013-02-25 19:57:00,38.3,33.3,29.91,NNE,22,7.7,8.7,82,0.00,,CLR,0.04,VWS V14.01,2013-02-26 01:57:00,
2013-02-25 20:00:00,38.3,33.0,29.91,NE,45,4.3,8.7,81,0.00,,OVC025,0.04,VWS V14.01,2013-02-26 02:00:00,
2013-02-25 20:02:00,38.3,33.0,29.91,NE,45,6.0,6.7,81,0.00,,CLR,0.04,VWS V14.01,2013-02-26 02:02:00,
2013-02-25 20:05:00,38.3,33.0,29.91,NE,45,6.0,6.7,81,0.00,,OVC025,0.04,VWS V14.01,2013-02-26 02:05:00,
2013-02-25 20:07:00,38.3,32.7,29.91,NE,45,7.7,8.7,80,0.00,,CLR,0.04,VWS V14.01,2013-02-26 02:07:00,
2013-02-25 20:10:00,38.5,32.8,29.91,NE,45,7.7,8.7,80,0.00,,OVC025,0.04,VWS V14.01,2013-02-26 02:10:00,
2013-02-25 20:12:00,38.5,32.5,29.91,NNE,22,6.0,12.0,79,0.00,,CLR,0.04,VWS V14.01,2013-02-26 02:12:00,
2013-02-25 20:15:00,38.5,32.5,29.91,NNE,22,6.0,6.7,79,0.00,,OVC025,0.04,VWS V14.01,2013-02-26 02:15:00,
2013-02-25 20:18:00,38.7,32.4,29.91,ENE,68,5.1,5.8,78,0.00,,CLR,0.04,VWS V14.01,2013-02-26 02:18:00,
2013-02-25 20:20:00,38.5,32.2,29.91,ENE,68,5.1,5.8,78,0.00,,OVC025,0.04,VWS V14.01,2013-02-26 02:20:00,
2013-02-25 20:23:00,38.7,31.4,29.91,ENE,68,7.7,8.7,75,0.00,,CLR,0.04,VWS V14.01,2013-02-26 02:23:00,
2013-02-25 20:25:00,38.7,31.4,29.91,NNE,22,4.3,8.7,75,0.00,,OVC025,0.04,VWS V14.01,2013-02-26 02:25:00,
2013-02-25 20:28:00,38.8,31.6,29.91,ENE,68,5.1,5.8,75,0.00,,CLR,0.04,VWS V14.01,2013-02-26 02:28:00,
2013-02-25 20:30:00,38.8,31.3,29.91,ENE,68,5.1,5.8,74,0.00,,OVC025,0.04,VWS V14.01,2013-02-26 02:30:00,
2013-02-25 20:33:00,38.8,31.3,29.91,ENE,68,3.0,6.7,74,0.00,,CLR,0.04,VWS V14.01,2013-02-26 02:33:00,
2013-02-25 20:35:00,38.8,30.9,29.91,NE,45,7.7,9.6,73,0.00,,OVC025,0.04,VWS V14.01,2013-02-26 02:35:00,
2013-02-25 20:38:00,38.8,31.3,29.91,NE,45,6.4,10.6,74,0.00,,CLR,0.04,VWS V14.01,2013-02-26 02:38:00,
2013-02-25 20:40:00,38.7,31.4,29.91,NE,45,6.4,7.2,75,0.00,,OVC025,0.04,VWS V14.01,2013-02-26 02:40:00,
2013-02-25 20:43:00,38.7,31.8,29.91,NE,45,6.0,6.7,76,0.00,,CLR,0.04,VWS V14.01,2013-02-26 02:43:00,
2013-02-25 20:45:00,38.7,31.8,29.91,NE,45,10.6,12.0,76,0.00,,OVC025,0.04,VWS V14.01,2013-02-26 02:45:00,
2013-02-25 20:48:00,38.5,31.9,29.91,ENE,68,9.4,12.0,77,0.00,,CLR,0.04,VWS V14.01,2013-02-26 02:48:00,
2013-02-25 20:50:00,38.5,31.9,29.91,ENE,68,7.2,12.0,77,0.00,,OVC025,0.04,VWS V14.01,2013-02-26 02:50:00,
2013-02-25 20:53:00,38.5,31.9,29.91,NE,45,6.4,8.7,77,0.00,,CLR,0.04,VWS V14.01,2013-02-26 02:53:00,
2013-02-25 20:55:00,38.3,32.0,29.91,ENE,68,7.7,8.7,78,0.00,,OVC025,0.04,VWS V14.01,2013-02-26 02:55:00,
2013-02-25 20:58:00,38.3,32.4,29.91,ENE,68,6.8,7.7,79,0.00,,CLR,0.04,VWS V14.01,2013-02-26 02:58:00,
2013-02-25 21:00:00,38.3,32.4,29.91,NE,45,5.1,9.1,79,0.00,,OVC025,0.04,VWS V14.01,2013-02-26 03:00:00,
2013-02-25 21:03:00,38.1,32.5,29.91,ENE,68,3.0,8.2,80,0.00,,BKN110,0.04,VWS V14.01,2013-02-26 03:03:00,
2013-02-25 21:05:00,38.1,32.5,29.91,ENE,68,6.0,7.2,80,0.00,,OVC025,0.04,VWS V14.01,2013-02-26 03:05:00,
2013-02-25 21:08:00,38.1,32.5,29.91,ENE,68,7.7,11.5,80,0.00,,BKN110,0.04,VWS V14.01,2013-02-26 03:08:00,
2013-02-25 21:10:00,38.1,32.5,29.91,ENE,68,7.7,8.7,80,0.00,,OVC025,0.04,VWS V14.01,2013-02-26 03:10:00,
2013-02-25 21:13:00,38.1,32.5,29.91,ENE,68,2.6,7.2,80,0.00,,BKN110,0.04,VWS V14.01,2013-02-26 03:13:00,
2013-02-25 21:15:00,38.1,32.5,29.91,ENE,68,2.6,7.2,80,0.00,,OVC025,0.04,VWS V14.01,2013-02-26 03:15:00,
2013-02-25 21:18:00,38.1,32.5,29.91,NE,45,3.0,6.7,80,0.00,,BKN110,0.04,VWS V14.01,2013-02-26 03:18:00,
2013-02-25 21:20:00,38.1,32.5,29.91,ENE,68,7.7,8.7,80,0.00,,OVC025,0.04,VWS V14.01,2013-02-26 03:20:00,
2013-02-25 21:23:00,38.1,32.5,29.91,NE,45,5.1,9.1,80,0.00,,BKN110,0.04,VWS V14.01,2013-02-26 03:23:00,
2013-02-25 21:25:00,38.1,32.5,29.91,NNE,22,3.8,5.8,80,0.00,,OVC025,0.04,VWS V14.01,2013-02-26 03:25:00,
2013-02-25 21:28:00,38.1,32.5,29.91,NNE,22,6.0,6.7,80,0.00,,BKN110,0.04,VWS V14.01,2013-02-26 03:28:00,
2013-02-25 21:30:00,37.9,32.3,29.91,NNE,22,6.0,6.7,80,0.00,,OVC025,0.04,VWS V14.01,2013-02-26 03:30:00,
2013-02-25 21:33:00,37.9,32.3,29.91,ENE,68,7.7,12.0,80,0.00,,BKN110,0.04,VWS V14.01,2013-02-26 03:33:00,
2013-02-25 21:35:00,37.9,32.3,29.91,East,90,7.7,8.7,80,0.00,,OVC025,0.04,VWS V14.01,2013-02-26 03:35:00,
2013-02-25 21:38:00,37.9,32.3,29.91,NE,45,4.3,10.6,80,0.00,,BKN110,0.04,VWS V14.01,2013-02-26 03:38:00,
2013-02-25 21:40:00,37.9,32.3,29.91,NE,45,6.0,6.7,80,0.00,,OVC025,0.04,VWS V14.01,2013-02-26 03:40:00,
2013-02-25 21:43:00,37.9,32.0,29.91,NNE,22,8.9,10.1,79,0.00,,BKN110,0.04,VWS V14.01,2013-02-26 03:43:00,
2013-02-25 21:45:00,37.9,32.0,29.91,ENE,68,5.5,10.1,79,0.00,,OVC025,0.04,VWS V14.01,2013-02-26 03:45:00,
2013-02-25 21:48:00,37.9,32.0,29.91,ENE,68,6.8,8.2,79,0.00,,BKN110,0.04,VWS V14.01,2013-02-26 03:48:00,
2013-02-25 21:50:00,37.9,32.0,29.91,ENE,68,6.0,8.2,79,0.00,,OVC025,0.04,VWS V14.01,2013-02-26 03:50:00,
2013-02-25 21:54:00,37.8,31.8,29.91,NE,45,8.1,10.6,79,0.00,,BKN110,0.04,VWS V14.01,2013-02-26 03:54:00,
2013-02-25 21:55:00,37.8,31.8,29.91,ENE,68,6.0,9.1,79,0.00,,OVC025,0.04,VWS V14.01,2013-02-26 03:55:00,
2013-02-25 21:59:00,37.8,32.2,29.85,ENE,68,11.5,13.0,80,0.00,,BKN110,0.04,VWS V14.01,2013-02-26 03:59:00,
2013-02-25 22:00:00,37.8,32.2,29.85,ENE,68,11.5,13.0,80,0.00,,OVC025,0.04,VWS V14.01,2013-02-26 04:00:00,
2013-02-25 22:04:00,37.6,32.0,29.85,East,90,6.0,8.2,80,0.00,,BKN120,0.04,VWS V14.01,2013-02-26 04:04:00,
2013-02-25 22:05:00,37.6,32.0,29.85,East,90,6.0,6.7,80,0.00,,OVC025,0.04,VWS V14.01,2013-02-26 04:05:00,
2013-02-25 22:09:00,37.6,32.0,29.85,ENE,68,6.0,11.5,80,0.00,,BKN120,0.04,VWS V14.01,2013-02-26 04:09:00,
2013-02-25 22:10:00,37.6,32.0,29.85,ENE,68,6.0,11.5,80,0.00,,OVC025,0.04,VWS V14.01,2013-02-26 04:10:00,
2013-02-25 22:14:00,37.6,32.0,29.85,NE,45,10.6,16.4,80,0.00,,BKN120,0.04,VWS V14.01,2013-02-26 04:14:00,
2013-02-25 22:15:00,37.6,32.0,29.85,NE,45,6.0,16.4,80,0.00,,OVC025,0.04,VWS V14.01,2013-02-26 04:15:00,
2013-02-25 22:19:00,37.6,32.0,29.85,NE,45,6.8,10.6,80,0.00,,BKN120,0.04,VWS V14.01,2013-02-26 04:19:00,
2013-02-25 22:20:00,37.6,32.0,29.85,NE,45,6.8,10.6,80,0.00,,OVC025,0.04,VWS V14.01,2013-02-26 04:20:00,
2013-02-25 22:24:00,37.6,32.0,29.85,NE,45,4.7,5.8,80,0.00,,BKN120,0.04,VWS V14.01,2013-02-26 04:24:00,
2013-02-25 22:25:00,37.6,32.0,29.85,NE,45,4.7,5.8,80,0.00,,OVC025,0.04,VWS V14.01,2013-02-26 04:25:00,
2013-02-25 22:29:00,37.6,32.0,29.85,NNE,22,5.5,14.0,80,0.00,,BKN120,0.04,VWS V14.01,2013-02-26 04:29:00,
2013-02-25 22:30:00,37.6,32.0,29.85,NNE,22,5.5,14.0,80,0.00,,OVC025,0.04,VWS V14.01,2013-02-26 04:30:00,
2013-02-25 22:34:00,37.6,31.7,29.85,ENE,68,6.8,8.2,79,0.00,,BKN120,0.04,VWS V14.01,2013-02-26 04:34:00,
2013-02-25 22:35:00,37.6,31.7,29.85,ENE,68,6.8,8.2,79,0.00,,OVC025,0.04,VWS V14.01,2013-02-26 04:35:00,
2013-02-25 22:39:00,37.8,31.2,29.85,ENE,68,6.0,9.1,77,0.00,,BKN120,0.04,VWS V14.01,2013-02-26 04:39:00,
2013-02-25 22:40:00,37.8,31.2,29.85,ENE,68,6.0,9.1,77,0.00,,OVC025,0.04,VWS V14.01,2013-02-26 04:40:00,
2013-02-25 22:44:00,37.9,30.7,29.85,ENE,68,8.1,9.1,75,0.00,,BKN120,0.04,VWS V14.01,2013-02-26 04:44:00,
2013-02-25 22:49:00,37.9,30.7,29.85,East,90,5.1,5.8,75,0.00,,BKN120,0.04,VWS V14.01,2013-02-26 04:49:00,
2013-02-25 22:50:00,38.1,30.9,29.85,East,90,5.1,5.8,75,0.00,,OVC025,0.04,VWS V14.01,2013-02-26 04:50:00,
2013-02-25 22:54:00,38.1,30.2,29.85,NE,45,7.2,8.2,73,0.00,,BKN120,0.04,VWS V14.01,2013-02-26 04:54:00,
2013-02-25 22:55:00,38.1,30.2,29.85,NE,45,7.2,8.2,73,0.00,,OVC025,0.04,VWS V14.01,2013-02-26 04:55:00,
2013-02-25 22:59:00,38.1,30.6,29.82,NE,45,8.1,9.1,74,0.00,,BKN120,0.04,VWS V14.01,2013-02-26 04:59:00,
2013-02-25 23:00:00,38.1,30.6,29.82,NE,45,7.7,9.1,74,0.00,,BKN120,0.04,VWS V14.01,2013-02-26 05:00:00,
2013-02-25 23:05:00,38.1,30.6,29.82,NE,45,5.5,7.2,74,0.00,,OVC025,0.04,VWS V14.01,2013-02-26 05:05:00,
2013-02-25 23:06:00,38.1,30.6,29.82,ENE,68,7.2,8.2,74,0.00,,OVC100,0.04,VWS V14.01,2013-02-26 05:06:00,
2013-02-25 23:10:00,38.1,30.6,29.82,NE,45,6.0,8.7,74,0.00,,OVC025,0.04,VWS V14.01,2013-02-26 05:10:00,
2013-02-25 23:11:00,38.1,30.6,29.82,NE,45,6.0,10.1,74,0.00,,OVC100,0.04,VWS V14.01,2013-02-26 05:11:00,
2013-02-25 23:15:00,38.1,30.6,29.82,NE,45,5.5,6.3,74,0.00,,OVC025,0.04,VWS V14.01,2013-02-26 05:15:00,
2013-02-25 23:16:00,38.1,30.6,29.82,NE,45,5.1,5.8,74,0.00,,OVC100,0.04,VWS V14.01,2013-02-26 05:16:00,
2013-02-25 23:20:00,38.1,30.2,29.82,NNE,22,10.2,11.5,73,0.00,,OVC025,0.04,VWS V14.01,2013-02-26 05:20:00,
2013-02-25 23:21:00,38.3,30.4,29.82,NE,45,6.4,9.1,73,0.00,,OVC100,0.04,VWS V14.01,2013-02-26 05:21:00,
2013-02-25 23:25:00,38.3,30.4,29.82,NE,45,5.5,9.1,73,0.00,,OVC025,0.04,VWS V14.01,2013-02-26 05:25:00,
2013-02-25 23:26:00,38.3,30.7,29.79,ENE,68,6.8,7.7,74,0.00,,OVC100,0.04,VWS V14.01,2013-02-26 05:26:00,
2013-02-25 23:30:00,38.3,30.1,29.80,ENE,68,13.6,15.4,72,0.00,,OVC025,0.04,VWS V14.01,2013-02-26 05:30:00,
2013-02-25 23:31:00,38.3,30.4,29.79,NE,45,5.5,11.5,73,0.00,,OVC100,0.04,VWS V14.01,2013-02-26 05:31:00,
2013-02-25 23:36:00,38.3,30.1,29.79,ENE,68,11.5,13.0,72,0.00,,OVC100,0.04,VWS V14.01,2013-02-26 05:36:00,
2013-02-25 23:40:00,38.3,30.4,29.80,NE,45,7.2,8.2,73,0.00,,OVC025,0.04,VWS V14.01,2013-02-26 05:40:00,
2013-02-25 23:41:00,38.3,30.7,29.79,NE,45,6.8,7.7,74,0.00,,OVC100,0.04,VWS V14.01,2013-02-26 05:41:00,
2013-02-25 23:45:00,38.1,30.9,29.80,NE,45,5.5,7.7,75,0.00,,OVC025,0.04,VWS V14.01,2013-02-26 05:45:00,
2013-02-25 23:46:00,38.1,30.9,29.79,ENE,68,6.0,6.7,75,0.00,,OVC100,0.04,VWS V14.01,2013-02-26 05:46:00,
2013-02-25 23:50:00,38.1,30.9,29.80,NE,45,10.2,11.5,75,0.00,,OVC025,0.04,VWS V14.01,2013-02-26 05:50:00,
2013-02-25 23:52:00,38.1,30.9,29.79,ENE,68,5.1,7.2,75,0.00,,OVC100,0.04,VWS V14.01,2013-02-26 05:52:00,
2013-02-25 23:55:00,38.1,31.2,29.80,ENE,68,7.2,8.2,76,0.00,,OVC025,0.04,VWS V14.01,2013-02-26 05:55:00,
2013-02-25 23:57:00,38.1,30.9,29.85,NE,45,6.8,7.7,75,0.00,,OVC100,0.04,VWS V14.01,2013-02-26 05:57:00,